[ hide orbit diagram ]
For accurate long-term ephemerides, please instead use our Horizons system.This orbit viewer was implemented using two-body methods, and hence should not be used for determining accurate long-term trajectories (over several years or decades) or planetary encounter circumstances.
Orbital Elements at Epoch 2459200.5 (2020-Dec-17.0) TDB
Reference: JPL 27 (heliocentric ecliptic J2000)
Element | Value | Uncertainty (1-sigma) | Units |
e | .2655359505564708 | 4.9573e-08 | |
a | 2.552144286265376 | 1.068e-08 | au |
q | 1.874458227254634 | 1.2138e-07 | au |
i | 2.428642693946068 | 5.2679e-06 | deg |
node | 341.875983983919 | 0.00011936 | deg |
peri | 45.91963415726536 | 0.00012012 | deg |
M | 133.9895512698758 | 1.6102e-05 | deg |
tp | 2458646.225761013938 (2019-Jun-11.72576101) | 6.4883e-05 | TDB |
period | 1489.211092535718 4.08 | 9.3479e-06 2.559e-08 | d yr |
n | .2417387312009735 | 1.5174e-09 | deg/d |
Q | 3.229830345276118 | 1.3516e-08 | au |
|
| | Orbit Determination Parameters
Additional Information
|
[ show covariance matrix ]
Physical Parameter Table
Parameter |
Symbol |
Value |
Units |
Sigma |
Reference |
Notes |
absolute magnitude |
H |
15.27 |
|
n/a |
E2021B10 |
|
diameter |
diameter |
3.872 |
km |
1.147 |
urn:nasa:pds:neowise_diameters_albedos::2.0[mainbelt] (http://adsabs.harvard.edu/abs/2011ApJ...741...68M) |
|
geometric albedo |
albedo |
0.089 |
|
0.020 |
urn:nasa:pds:neowise_diameters_albedos::2.0[mainbelt] (http://adsabs.harvard.edu/abs/2011ApJ...741...68M) |
|
|
14024 Procol Harum | Discovered 1994 Sept. 9 by P. Sicoli and P. Ghezzi at Sormano. |
This British rock band, formed in the early 1960s, adopted the name Procol Harum in 1967. It is said either to have been the name of a friend's cat or to represent, although in formally incorrect Latin, "far from these things". |
NOTE: some special characters may not display properly (any characters within {} are an attempt to place the proper accent above a character) |
Reference: 20030614/MPCPages.arc | Last Updated: 2005-04-26 |
|
[ hide close-approach data ]
Close-Approach Data ...sorted by Date/Time (TDB)
|
Date/Time (TDB) |
Time Uncertainty (days_HH:MM) |
Body |
Nominal Distance (au) |
Minimum Distance (au) |
Maximum Distance (au) |
V-relative (km/s) |
V-infinity (km/s) |
JD (TDB) |
Time Uncertainty (minutes) |
Semi-major axis (km) |
Semi-minor axis (km) |
range-LOV angle (deg) |
N-sigma |
BP |
Orbit Ref. |
Reference |
Modified |
2008-Feb-24 05:29 |
< 00:01 |
Hebe |
0.0449349379059484 |
0.0449339610562484 |
0.0449359147556714 |
5.30514120461041 |
5.30514117853228 |
2454520.728661643 |
0.418397957644704 |
64.3582274055704 |
48.658972836778 |
87.4931619792107 |
138040.871857079 |
T |
27 |
CATAB v2.0f-lin.ifort 2021-Apr-13 00:16:04 |
2021-Apr-13 00:16 |
|
Alternate Designations
1994 RZ = 1986 TW12 = 1992 EW35 |
|
|